Retour au catalogue

COSMOS 1275 DEB

ActifPO
NORAD 12743·DEBRIS·🇷🇺 Russia

Lancé Jun 4, 1981 depuis Plesetsk Cosmodrome

Loading…

Prochains Passages (prochaines 24 heures)

TLE

FraisSource: Space-Track

Époque: Sep 14, 2026, 10:46 UTC

1 12743U 81053CL  26257.44921404  .00000420  00000-0  38217-3 0  9994
2 12743  82.9252 145.2496 0061878 287.5259 248.4653 13.80492051263585

Suivez COSMOS 1275 DEB en temps réel avec AllMySat

Download on the App Store